Погода в Лужны

Россия / Тульская область     53°20′24″N   37°02′08″E
темп.,
°C
ветер,
м/с
пор.,
м/с
влажн.,
%
обл.,
%
осадки,
мм/ч
давл.,
гПа
погр.,
м
18 октября, пн
пн1800:00+6з4877100 0.0 1016376
03:00+7зюз4862100 0.0 1014315
06:00+6зюз51072100 0.0 1014497
09:00+6зюз61175100 0.0 1014620
12:00+7зюз6107299 0.0 1014741
15:00+8з687199 0.2 10131129
18:00+6зсз5879100 0.3 1014772
21:00+4з3784100 0.3 1015218
19 октября, вт
вт1900:00+3з4986100 0.0 1015272
03:00+2зсз37915 0.0 1016193
06:000зсз37945 0.0 1017174
09:00+2сз478838 0.0 1017338
12:00+3сз5775100 0.0 1018924
15:00+3зсз6773100 0.0 1018767
18:00+2зсз5981100 0.1 1019646
21:00+1зсз61191100 0.1 1020669
20 октября, ср
ср2000:00+2сз6967100 0.0 10211092
03:000сз5108925 0.1 1023492
06:00−2сз489536 0.0 1024258
09:00−1сз348289 0.0 1025272
12:00+3з335688 0.0 1025726
15:00+4зюз4544100 0.0 1023856
18:00+2ю3858100 0.0 1022168
21:00+4ююз51256100 0.0 1020512
21 октября, чт
чт2100:00+5ююз81565100 0.2 1017624
03:00+5ююз81885100 2.1 1014690
06:00+6юз81689100 0.9 1012546
09:00+8юз8178199 0.9 1011560
12:00+11юз81873100 0.0 1010648
15:00+12юз91869100 0.0 1008718
18:00+12юз81775100 0.0 1008615
21:00+11юз91877100 0.0 1006641
22 октября, пт
пт2200:00+10юз91977100 0.0 1005654
03:00+10юз8177699 0.0 1004623
06:00+9юз71579100 0.0 1005497
09:00+9зюз714805 0.0 1006621
12:00+12зюз812677 0.0 1007925
15:00+13зюз71161100 0.0 10081021
18:00+10зюз511735 0.0 1010334
21:00+8юз3108451 0.0 1011197